• în România
  • Lista ţărilor
  • Pe 7 zile
  • Temperatura apei
  • Hartă satelitară
  • Meteo pe hartă
  • Widget-uri
  • user-avatar
    Intrare

    Meteo pe oră la Kandi

    Astăzi, 22 Iunie, Vineri

    Timp Temperatura Precipitaţii Vânt Presiune Umiditate
    00:00 +27°C° 0 mm 2 m/s 739 mmHg 76%
    01:00 +27°C° 0 mm 2 m/s 739 mmHg 77%
    02:00 +27°C° 0 mm 2 m/s 739 mmHg 79%
    03:00 +26°C° 0 mm 2 m/s 739 mmHg 80%
    04:00 +26°C° 0 mm 2 m/s 739 mmHg 81%
    05:00 +26°C° 0 mm 3 m/s 739 mmHg 82%
    06:00 +26°C° 0 mm 3 m/s 739 mmHg 83%
    07:00 +27°C° 0 mm 3 m/s 739 mmHg 76%
    08:00 +29°C° 0 mm 3 m/s 739 mmHg 68%
    09:00 +31°C° 0 mm 3 m/s 739 mmHg 61%
    10:00 +33°C° 0 mm 4 m/s 739 mmHg 54%
    11:00 +35°C° 0 mm 4 m/s 739 mmHg 47%
    12:00 +37°C° 0 mm 4 m/s 738 mmHg 40%
    13:00 +38°C° 0 mm 3 m/s 738 mmHg 39%
    14:00 +38°C° 0 mm 3 m/s 737 mmHg 37%
    15:00 +38°C° 0 mm 3 m/s 736 mmHg 36%
    16:00 +37°C° 0 mm 2 m/s 736 mmHg 39%
    17:00 +36°C° 0 mm 2 m/s 736 mmHg 43%
    18:00 +34°C° 0 mm 1 m/s 736 mmHg 46%
    19:00 +34°C° 0,4 mm 2 m/s 737 mmHg 52%
    20:00 +32°C° 0,4 mm 2 m/s 737 mmHg 58%
    21:00 +30°C° 0,4 mm 2 m/s 738 mmHg 65%
    22:00 +29°C° 1,4 mm 3 m/s 738 mmHg 69%
    23:00 +29°C° 1,4 mm 3 m/s 738 mmHg 74%

    Mâine, 23 Iunie, Sâmbătă

    Timp Temperatura Precipitaţii Vânt Presiune Umiditate
    00:00 +28°C° 1,4 mm 3 m/s 739 mmHg 79%
    01:00 +27°C° 1 mm 3 m/s 738 mmHg 81%
    02:00 +27°C° 1 mm 3 m/s 738 mmHg 83%
    03:00 +27°C° 1 mm 3 m/s 738 mmHg 85%
    04:00 +26°C° 0,1 mm 3 m/s 738 mmHg 86%
    05:00 +26°C° 0,1 mm 3 m/s 738 mmHg 86%
    06:00 +26°C° 0,1 mm 3 m/s 739 mmHg 86%
    07:00 +27°C° 0 mm 4 m/s 739 mmHg 81%
    08:00 +28°C° 0 mm 4 m/s 739 mmHg 75%
    09:00 +29°C° 0 mm 4 m/s 740 mmHg 69%
    10:00 +32°C° 0 mm 4 m/s 739 mmHg 64%
    11:00 +33°C° 0 mm 4 m/s 739 mmHg 59%
    12:00 +34°C° 0 mm 4 m/s 738 mmHg 53%
    13:00 +35°C° 0 mm 3 m/s 738 mmHg 50%
    14:00 +36°C° 0 mm 3 m/s 737 mmHg 47%
    15:00 +37°C° 0 mm 2 m/s 736 mmHg 44%
    16:00 +36°C° 0,1 mm 2 m/s 736 mmHg 47%
    17:00 +35°C° 0,1 mm 2 m/s 736 mmHg 51%
    18:00 +33°C° 0,1 mm 1 m/s 736 mmHg 54%
    19:00 +31°C° 0,7 mm 2 m/s 736 mmHg 61%
    20:00 +30°C° 0,7 mm 3 m/s 737 mmHg 67%
    21:00 +28°C° 0,7 mm 4 m/s 737 mmHg 73%
    22:00 +28°C° 4,3 mm 4 m/s 737 mmHg 78%
    23:00 +27°C° 4,3 mm 4 m/s 737 mmHg 82%

    Poimâine, 24 Iunie, Duminică

    Timp Temperatura Precipitaţii Vânt Presiune Umiditate
    00:00 +26°C° 4,3 mm 4 m/s 738 mmHg 86%
    01:00 +26°C° 2,3 mm 4 m/s 737 mmHg 87%
    02:00 +26°C° 2,3 mm 4 m/s 737 mmHg 88%
    03:00 +25°C° 2,3 mm 4 m/s 736 mmHg 89%
    04:00 +25°C° 0,3 mm 4 m/s 737 mmHg 90%
    05:00 +25°C° 0,3 mm 3 m/s 737 mmHg 90%
    06:00 +25°C° 0,3 mm 3 m/s 737 mmHg 90%
    07:00 +26°C° 0 mm 3 m/s 738 mmHg 87%
    08:00 +26°C° 0 mm 3 m/s 738 mmHg 84%
    09:00 +27°C° 0 mm 3 m/s 739 mmHg 81%
    10:00 +28°C° 0 mm 3 m/s 739 mmHg 75%
    11:00 +30°C° 0 mm 3 m/s 738 mmHg 68%
    12:00 +31°C° 0 mm 3 m/s 738 mmHg 61%
    13:00 +31°C° 0,6 mm 3 m/s 738 mmHg 62%
    14:00 +31°C° 0,6 mm 3 m/s 737 mmHg 63%
    15:00 +31°C° 0,6 mm 3 m/s 736 mmHg 64%
    16:00 +30°C° 0,9 mm 2 m/s 736 mmHg 69%
    17:00 +29°C° 0,9 mm 2 m/s 737 mmHg 74%
    18:00 +28°C° 0,9 mm 1 m/s 737 mmHg 79%
    19:00 +28°C° 0 mm 1 m/s 737 mmHg 81%
    20:00 +27°C° 0 mm 1 m/s 738 mmHg 83%
    21:00 +27°C° 0 mm 1 m/s 738 mmHg 85%
    22:00 +26°C° 0 mm 1 m/s 738 mmHg 86%
    23:00 +26°C° 0 mm 1 m/s 738 mmHg 87%

    25 Iunie, Luni

    Timp Temperatura Precipitaţii Vânt Presiune Umiditate
    00:00 +26°C° 0 mm 1 m/s 738 mmHg 87%
    01:00 +26°C° 0 mm 1 m/s 738 mmHg 88%
    02:00 +25°C° 0 mm 1 m/s 737 mmHg 88%
    03:00 +25°C° 0 mm 1 m/s 737 mmHg 89%
    04:00 +25°C° 0 mm 1 m/s 738 mmHg 89%
    05:00 +25°C° 0 mm 1 m/s 738 mmHg 89%
    06:00 +25°C° 0 mm 1 m/s 738 mmHg 88%
    07:00 +27°C° 0 mm 1 m/s 739 mmHg 80%
    08:00 +28°C° 0 mm 2 m/s 739 mmHg 72%
    09:00 +30°C° 0 mm 2 m/s 740 mmHg 64%
    10:00 +32°C° 0 mm 2 m/s 739 mmHg 57%
    11:00 +35°C° 0 mm 2 m/s 739 mmHg 50%
    12:00 +36°C° 0 mm 2 m/s 738 mmHg 44%
    13:00 +37°C° 0 mm 2 m/s 737 mmHg 42%
    14:00 +36°C° 0 mm 1 m/s 737 mmHg 40%
    15:00 +37°C° 0 mm 1 m/s 736 mmHg 38%
    16:00 +36°C° 0 mm 1 m/s 736 mmHg 42%
    17:00 +34°C° 0 mm 1 m/s 736 mmHg 46%
    18:00 +33°C° 0 mm 1 m/s 736 mmHg 50%
    19:00 +32°C° 0 mm 1 m/s 737 mmHg 54%
    20:00 +31°C° 0 mm 2 m/s 737 mmHg 58%
    21:00 +30°C° 0 mm 2 m/s 738 mmHg 61%
    22:00 +30°C° 0,1 mm 2 m/s 738 mmHg 64%
    23:00 +29°C° 0,1 mm 2 m/s 737 mmHg 67%

    26 Iunie, Marţi

    Timp Temperatura Precipitaţii Vânt Presiune Umiditate
    00:00 +29°C° 0,1 mm 2 m/s 737 mmHg 70%
    01:00 +28°C° 0,1 mm 2 m/s 737 mmHg 72%
    02:00 +28°C° 0,1 mm 2 m/s 737 mmHg 75%
    03:00 +28°C° 0,1 mm 2 m/s 736 mmHg 77%
    04:00 +27°C° 0,1 mm 2 m/s 737 mmHg 79%
    05:00 +27°C° 0,1 mm 1 m/s 738 mmHg 81%
    06:00 +27°C° 0,1 mm 1 m/s 738 mmHg 83%
    07:00 +27°C° 0,3 mm 1 m/s 738 mmHg 83%
    08:00 +27°C° 0,3 mm 2 m/s 739 mmHg 83%
    09:00 +27°C° 0,3 mm 2 m/s 739 mmHg 83%
    10:00 +29°C° 0 mm 3 m/s 738 mmHg 75%
    11:00 +31°C° 0 mm 3 m/s 738 mmHg 66%
    12:00 +33°C° 0 mm 3 m/s 737 mmHg 58%
    13:00 +34°C° 0 mm 3 m/s 737 mmHg 53%
    14:00 +35°C° 0 mm 2 m/s 736 mmHg 48%
    15:00 +37°C° 0 mm 2 m/s 736 mmHg 43%
    16:00 +36°C° 0 mm 2 m/s 736 mmHg 46%
    17:00 +34°C° 0 mm 1 m/s 736 mmHg 49%
    18:00 +33°C° 0 mm 1 m/s 736 mmHg 52%
    19:00 +32°C° 0,2 mm 1 m/s 736 mmHg 57%
    20:00 +31°C° 0,2 mm 2 m/s 737 mmHg 62%
    21:00 +29°C° 0,2 mm 2 m/s 737 mmHg 67%
    22:00 +29°C° 0,7 mm 2 m/s 737 mmHg 71%
    23:00 +28°C° 0,7 mm 2 m/s 737 mmHg 76%

    27 Iunie, Miercuri

    Timp Temperatura Precipitaţii Vânt Presiune Umiditate
    00:00 +27°C° 0,7 mm 2 m/s 737 mmHg 81%
    01:00 +27°C° 0,3 mm 2 m/s 737 mmHg 83%
    02:00 +26°C° 0,3 mm 2 m/s 737 mmHg 85%
    03:00 +26°C° 0,3 mm 2 m/s 737 mmHg 87%
    04:00 +26°C° 0 mm 2 m/s 737 mmHg 87%
    05:00 +26°C° 0 mm 2 m/s 737 mmHg 88%
    06:00 +26°C° 0 mm 2 m/s 737 mmHg 88%
    07:00 +27°C° 0 mm 2 m/s 738 mmHg 83%
    08:00 +28°C° 0 mm 3 m/s 738 mmHg 79%
    09:00 +29°C° 0 mm 3 m/s 739 mmHg 74%
    10:00 +30°C° 0 mm 3 m/s 738 mmHg 70%
    11:00 +31°C° 0 mm 3 m/s 738 mmHg 65%
    12:00 +33°C° 0 mm 3 m/s 738 mmHg 60%
    13:00 +32°C° 0 mm 2 m/s 737 mmHg 59%
    14:00 +32°C° 0 mm 2 m/s 736 mmHg 57%
    15:00 +34°C° 0 mm 2 m/s 736 mmHg 55%
    16:00 +32°C° 0 mm 2 m/s 736 mmHg 57%
    17:00 +32°C° 0 mm 2 m/s 736 mmHg 60%
    18:00 +31°C° 0 mm 2 m/s 736 mmHg 62%
    19:00 +30°C° 0,5 mm 2 m/s 737 mmHg 67%
    20:00 +29°C° 0,5 mm 2 m/s 737 mmHg 72%
    21:00 +28°C° 0,5 mm 2 m/s 738 mmHg 77%
    22:00 +28°C° 0 mm 2 m/s 737 mmHg 77%
    23:00 +27°C° 0 mm 2 m/s 737 mmHg 78%
    Arată mai mult